Location: Kawakawa
(35.3830°S, 174.0670°E)
Time: 02:36:28
(UTC+13:00)

Altair - Pass Details

Date: 11 December 2019
Orbit: 1502 x 1682 km, 47.2° (Epoch: 23 January)

Event Time Altitude Azimuth Distance (km) Brightness Sun altitude
Rises 12:54:05 0° 260° (W) 4,841 10.0 76.6°
Reaches altitude 10° 12:57:27 10° 252° (WSW) 3,881 9.7 76.9°
Maximum altitude 13:06:49 42° 183° (S) 2,242 8.9 77.4°
Drops below altitude 10° 13:16:22 10° 114° (ESE) 3,961 9.8 77.6°
Sets 13:19:51 0° 106° (ESE) 4,949 10.1 77.6°
